Jordan, MT

5:47 AM MDT on May 26, 2017 (GMT -0600)
Jordan

Weather History for KJDN - December, 2011

Change the Weather History Date:

Friday, December 23, 2011

  Actual Average Record
Temperature  
Mean Temperature 31 °F 17 °F  
Max Temperature 46 °F 30 °F 55 °F (1936)
Min Temperature 16 °F 5 °F -37 °F (1983)
Degree Days  
Heating Degree Days 34 48  
Month to date heating degree days 907 1045  
Since 1 July heating degree days 2587 3063  
Cooling Degree Days 0 0  
Month to date cooling degree days 0 0  
Year to date cooling degree days 494 421  
Moisture  
Dew Point 14 °F    
Average Humidity 57    
Maximum Humidity 80    
Minimum Humidity 33    
Precipitation  
Precipitation 0.00 in 0.01 in 0.49 in (1973)
Month to date precipitation 0.16 0.19  
Year to date precipitation 16.46 12.57  
Snow  
Snow 0.00 in - - ()
Month to date snowfall 0.0  
Since 1 July snowfall 0.0  
Snow Depth 0.00 in    
Sea Level Pressure  
Sea Level Pressure 30.18 in    
Wind  
Wind Speed 9 mph (West)    
Max Wind Speed 16 mph    
Max Gust Speed 21 mph    
T = Trace of Precipitation, MM = Missing Value Source: NWS Daily Summary

Daily Weather History Graph

Daily Weather History Graph

Search for Another Location

Airport or City:

Trip Planner

Search our weather history database for the weather conditions in past years. The results will help you decide how hot, cold, wet, or windy it might be!

Date:

Astronomy

Dec. 23, 2011 Rise Set
Actual Time 7:52 AM MST 4:20 PM MST
Civil Twilight 7:17 AM MST 4:56 PM MST
Nautical Twilight 6:37 AM MST 5:35 PM MST
Astronomical Twilight 6:00 AM MST 6:13 PM MST
Moon 6:46 AM MST (12/23) 3:31 PM MST (12/23)
Length of Visible Light 9h 39m
Length of Day
8h 27m
Waning Crescent, 1% of the Moon is Illuminated
Dec 23
Waning Crescent
Dec 24
New
Dec 31
First Quarter
Jan 9
Full
Jan 16
Last Quarter

Hourly Weather History & Observations

Time (MST) Temp. Windchill Dew Point Humidity Pressure Visibility Wind Dir Wind Speed Gust Speed Precip Events Conditions
12:48 AM 21.0 °F 12.4 °F 12.0 °F 68% 30.21 in - West 6.9 mph - N/A   Unknown
1:48 AM 19.0 °F 10.0 °F 10.0 °F 68% 30.21 in - West 6.9 mph - N/A   Unknown
2:48 AM 24.1 °F 12.5 °F 12.0 °F 60% 30.21 in - West 12.7 mph - N/A   Unknown
3:48 AM 26.1 °F 14.0 °F 12.9 °F 58% 30.19 in - West 15.0 mph - N/A   Unknown
4:48 AM 21.9 °F 10.4 °F 12.0 °F 66% 30.20 in - West 11.5 mph - N/A   Unknown
5:48 AM 19.0 °F 8.2 °F 10.9 °F 71% 30.23 in - West 9.2 mph - N/A   Unknown
6:48 AM 21.2 °F 10.1 °F 12.2 °F 68% 30.11 in - WNW 10.4 mph - N/A   Unknown
7:48 AM 18.0 °F 8.7 °F 10.9 °F 74% 30.22 in - West 6.9 mph - N/A   Unknown
8:48 AM 19.0 °F 13.9 °F 10.9 °F 71% 30.20 in - West 3.5 mph - N/A   Unknown
9:48 AM 28.9 °F 21.9 °F 16.0 °F 58% 30.18 in - West 6.9 mph - N/A   Unknown
10:48 AM 37.9 °F 30.9 °F 17.1 °F 43% 30.15 in - WSW 10.4 mph - N/A   Unknown
11:48 AM 42.1 °F 35.2 °F 17.1 °F 37% 30.13 in - West 12.7 mph - N/A   Unknown
12:48 PM 44.1 °F 39.0 °F 18.0 °F 35% 30.11 in - West 9.2 mph - N/A   Unknown
1:48 PM 44.1 °F 39.0 °F 18.0 °F 35% 30.10 in - West 9.2 mph - N/A   Unknown
2:48 PM 43.0 °F 38.8 °F 18.0 °F 37% 30.09 in - West 6.9 mph - N/A   Unknown
3:48 PM 39.0 °F 34.8 °F 17.1 °F 41% 30.13 in - WNW 5.8 mph - N/A   Unknown
4:48 PM 39.0 °F 31.8 °F 16.0 °F 39% 30.14 in - West 11.5 mph - N/A   Unknown
5:48 PM 30.9 °F 24.3 °F 15.1 °F 52% 30.20 in - WNW 6.9 mph - N/A   Unknown
9:48 PM 30.9 °F 22.2 °F 16.0 °F 54% 30.27 in - West 10.4 mph - N/A   Unknown
10:48 PM 27.0 °F - 14.0 °F 58% 30.27 in - Calm Calm - N/A   Unknown
11:48 PM 23.0 °F - 14.0 °F 68% 30.26 in - Calm Calm - N/A   Unknown